Back to catalog

STARLINK-5964

AliveCommunicationsVLEO
NORAD 56009·PAYLOAD·🇺🇸 United States

Launched Mar 24, 2023 from Cape Canaveral Space Force Station

Loading…

Next Passes (next 24 hours)

TLE

FreshSource: CelesTrak SupGP

Epoch: Sep 14, 2026, 21:55 UTC

1 56009C 23042Z   26257.91368056  .00056919  00000+0  20614-2 0  2572
2 56009  43.0039  74.3978 0001787 274.2324 264.3439 15.27553023    11

Track STARLINK-5964 in real time with AllMySat

Download on the App Store